Elmira, NY

11:47 AM EDT on August 16, 2017 (GMT -0400)
Elmira-Corning Regional

Weather History for KELM - February, 2014

Change the Weather History Date:

Monday, February 10, 2014

  Actual Average Record
Temperature  
Mean Temperature 13 °F -  
Max Temperature 21 °F 33 °F 56 °F (1990)
Min Temperature 1 °F 11 °F -15 °F (1934)
Degree Days  
Heating Degree Days 52    
Moisture  
Dew Point 4 °F    
Average Humidity 66    
Maximum Humidity 87    
Minimum Humidity 46    
Precipitation  
Precipitation 0.00 in - - ()
Sea Level Pressure  
Sea Level Pressure 30.18 in    
Wind  
Wind Speed 8 mph (West)    
Max Wind Speed 15 mph    
Max Gust Speed 21 mph    
Visibility 10 miles    
Events Snow    
Averages and records for this station are not official NWS values.
T = Trace of Precipitation, MM = Missing Value Source: NWS Daily Summary

Daily Weather History Graph

Daily Weather History Graph

Search for Another Location

Airport or City:

Trip Planner

Search our weather history database for the weather conditions in past years. The results will help you decide how hot, cold, wet, or windy it might be!

Date:

Astronomy

Feb. 10, 2014 Rise Set
Actual Time 7:10 AM EST 5:33 PM EST
Civil Twilight 6:41 AM EST 6:02 PM EST
Nautical Twilight 6:08 AM EST 6:35 PM EST
Astronomical Twilight 5:35 AM EST 7:08 PM EST
Moon 1:59 PM EST (2/10) 4:03 AM EST (2/10)
Length of Visible Light 11h 21m
Length of Day
10h 23m
Waxing Gibbous, 84% of the Moon is Illuminated
Feb 10
Waxing Gibbous
Feb 14
Full
Feb 22
Last Quarter
Mar 1
New
Mar 8
First Quarter

Hourly Weather History & Observations

Time (EST) Temp. Windchill Dew Point Humidity Pressure Visibility Wind Dir Wind Speed Gust Speed Precip Events Conditions
12:18 AM 15.8 °F 6.1 °F 6.8 °F 68% 30.04 in 10.0 mi West 6.9 mph - N/A   Overcast
12:43 AM 14.0 °F 2.9 °F 6.8 °F 73% 30.04 in 10.0 mi West 8.1 mph - N/A   Scattered Clouds
12:53 AM 12.9 °F 3.8 °F 5.0 °F 71% 30.09 in 10.0 mi West 5.8 mph - N/A   Clear
1:53 AM 10.9 °F 0.2 °F 3.0 °F 70% 30.11 in 10.0 mi West 6.9 mph - N/A   Partly Cloudy
2:11 AM 10.4 °F 0.8 °F 3.2 °F 73% 30.06 in 10.0 mi West 5.8 mph - N/A   Mostly Cloudy
2:53 AM 12.9 °F 0.7 °F 3.9 °F 67% 30.12 in 10.0 mi West 9.2 mph - N/A   Scattered Clouds
3:53 AM 12.0 °F -0.4 °F 3.0 °F 67% 30.11 in 10.0 mi West 9.2 mph - N/A   Clear
4:53 AM 12.0 °F 0.5 °F 3.9 °F 70% 30.13 in 10.0 mi WSW 8.1 mph - N/A   Clear
5:53 AM 8.1 °F -6.2 °F 3.0 °F 80% 30.15 in 10.0 mi WSW 10.4 mph - N/A   Clear
6:53 AM 5.0 °F -9.1 °F 1.9 °F 87% 30.16 in 8.0 mi WSW 9.2 mph - N/A   Clear
7:53 AM 5.0 °F -8.1 °F -0.0 °F 80% 30.17 in 7.0 mi WSW 8.1 mph - N/A   Clear
8:53 AM 10.0 °F -0.9 °F 3.0 °F 73% 30.19 in 9.0 mi WSW 6.9 mph - N/A   Clear
9:53 AM 15.1 °F 1.8 °F 5.0 °F 64% 30.21 in 10.0 mi West 11.5 mph - N/A   Clear
10:53 AM 17.1 °F 5.8 °F 6.1 °F 62% 30.21 in 10.0 mi WSW 9.2 mph - N/A   Clear
11:53 AM 19.0 °F 11.1 °F 5.0 °F 54% 30.21 in 10.0 mi WNW 5.8 mph - N/A   Overcast
12:53 PM 19.0 °F 8.2 °F 6.1 °F 57% 30.19 in 10.0 mi WSW 9.2 mph - N/A   Overcast
1:53 PM 21.0 °F 7.6 °F 7.0 °F 55% 30.17 in 10.0 mi WSW 15.0 mph 20.7 mph N/A   Overcast
2:53 PM 21.0 °F 8.1 °F 3.0 °F 46% 30.18 in 10.0 mi NW 13.8 mph - N/A   Mostly Cloudy
3:53 PM 21.9 °F 12.5 °F 7.0 °F 53% 30.19 in 10.0 mi NNW 8.1 mph - 0.00 in   Mostly Cloudy
4:53 PM 19.9 °F 7.3 °F 7.0 °F 57% 30.21 in 10.0 mi WNW 12.7 mph - N/A   Mostly Cloudy
5:16 PM 19.4 °F 9.5 °F 10.4 °F 68% 30.16 in 10.0 mi NW 8.1 mph 17.3 mph 0.00 in Snow Light Snow
5:27 PM 19.4 °F 10.4 °F 10.4 °F 68% 30.17 in 7.0 mi WNW 6.9 mph - 0.00 in   Overcast
5:53 PM 18.0 °F 11.1 °F 8.1 °F 65% 30.24 in 10.0 mi NW 4.6 mph - 0.00 in   Mostly Cloudy
6:53 PM 12.9 °F 3.8 °F 3.0 °F 65% 30.27 in 10.0 mi Variable 5.8 mph - N/A   Clear
7:53 PM 12.9 °F 6.9 °F 1.0 °F 59% 30.29 in 10.0 mi WNW 3.5 mph - N/A   Clear
8:53 PM 10.9 °F 1.4 °F -0.0 °F 61% 30.29 in 10.0 mi WNW 5.8 mph - N/A   Clear
9:53 PM 12.0 °F 2.7 °F -0.0 °F 59% 30.32 in 10.0 mi WNW 5.8 mph - N/A   Clear
10:53 PM 8.1 °F - -2.0 °F 64% 30.33 in 10.0 mi Calm Calm - N/A   Partly Cloudy
11:53 PM 1.0 °F -12.9 °F -4.0 °F 79% 30.33 in 7.0 mi WNW 8.1 mph - N/A   Clear